User: anonymous   Login
Location: Nairn
(57.5833°N, 3.8667°W)
Time: 01:49:21
(UTC+00:00)
Language:

Cosmos 1536 Rocket - Orbit

View from above orbital plane
View from above orbital plane
View from above satellite
View from above satellite

Ground track
Ground track

The orbit data is extracted from the following two-line orbital elements,

1 14700U 84013B   20302.56130815 +.00000102 +00000-0 +95027-5 0  9995
2 14700 082.5354 088.2281 0018533 232.3440 172.3566 14.83301377962158
Epoch (UTC): 28 October 2020 13:28:17
Eccentricity: 0.0018533
inclination: 82.5354°
perigee height: 606 km
apogee height: 632 km
right ascension of ascending node: 88.2281°
argument of perigee: 232.3440°
revolutions per day: 14.83301377
mean anomaly at epoch: 172.3566°
orbit number at epoch: 96215

The dashed part of the orbit path shows where the satellite is in the earth's shadow,  

DLR